QPF
0.01 0.02 0.02 0.02 0.02 0.02 0.02 0.02 0.01 0.01 0.01 0.00 0.00 0.00 0.00 0.01 0.00 0.01 0.01 0.01 0.01 0.01 0.01 0.01 0.01 0.01 0.01 0.02 0.03 0.01 0.00 0.01 0.01 0.01 0.01 0.01 0.01 0.01 0.02 0.02 0.02 0.01 0.01 0.01
0.01 0.01 0.00 0.00 0.00 0.01 0.01 0.01 0.01 0.01 0.00 0.00 0.00 0.00 0.00 0.00 0.00 0.00 0.01 0.01 0.01 0.01 0.01 0.01 0.01 0.02 0.02 0.02 0.01 0.01 0.00 0.01 0.01 0.01 0.01 0.01 0.01 0.00 0.01 0.01 0.02 0.01 0.01 0.01
0.01 0.01 0.01 0.00 0.01 0.01 0.01 0.00 0.00 0.00 0.00 0.00 0.00 0.00 0.00 0.00 0.00 0.00 0.00 0.00 0.01 0.01 0.01 0.01 0.01 0.01 0.02 0.02 0.01 0.01 0.01 0.01 0.01 0.01 0.01 0.01 0.01 0.01 0.01 0.01 0.02 0.02 0.01 0.01
0.02 0.02 0.02 0.01 0.01 0.01 0.01 0.00 0.00 0.00 0.00 0.00 0.01 0.00 0.00 0.00 0.00 0.00 0.00 0.00 0.00 0.01 0.01 0.01 0.01 0.01 0.01 0.01 0.01 0.02 0.02 0.01 0.01 0.01 0.02 0.01 0.01 0.01 0.01 0.01 0.02 0.02 0.02 0.02
0.04 0.04 0.02 0.02 0.01 0.01 0.01 0.01 0.01 0.00 0.00 0.00 0.00 0.00 0.00 0.00 0.00 0.00 0.00 0.00 0.00 0.00 0.00 0.00 0.00 0.01 0.00 0.01 0.02 0.02 0.02 0.01 0.01 0.01 0.02 0.02 0.02 0.01 0.01 0.02 0.02 0.01 0.02 0.02
0.04 0.04 0.03 0.02 0.01 0.01 0.00 0.02 0.02 0.01 0.00 0.00 0.00 0.00 0.01 0.01 0.00 0.00 0.00 0.00 0.00 0.00 0.00 0.00 0.00 0.00 0.00 0.01 0.01 0.02 0.01 0.01 0.01 0.01 0.01 0.01 0.02 0.02 0.02 0.02 0.02 0.02 0.02 0.01
0.03 0.03 0.02 0.02 0.01 0.01 0.01 0.01 0.02 0.01 0.00 0.00 0.00 0.00 0.00 0.00 0.00 0.00 0.00 0.00 0.00 0.00 0.01 0.01 0.00 0.01 0.01 0.00 0.00 0.00 0.01 0.02 0.02 0.02 0.01 0.01 0.01 0.01 0.01 0.01 0.02 0.01 0.02 0.01
0.03 0.03 0.03 0.02 0.02 0.03 0.03 0.01 0.00 0.00 0.00 0.00 0.00 0.00 0.00 0.00 0.00 0.00 0.00 0.00 0.00 0.00 0.01 0.01 0.01 0.01 0.01 0.01 0.01 0.00 0.01 0.01 0.02 0.02 0.01 0.01 0.02 0.01 0.02 0.02 0.03 0.04 0.03 0.03
0.03 0.02 0.02 0.02 0.03 0.04 0.03 0.01 0.00 0.00 0.00 0.00 0.00 0.00 0.00 0.00 0.00 0.00 0.00 0.00 0.00 0.00 0.00 0.01 0.01 0.01 0.02 0.02 0.01 0.01 0.01 0.01 0.01 0.01 0.01 0.01 0.01 0.01 0.01 0.01 0.02 0.04 0.04 0.03
0.03 0.01 0.01 0.02 0.04 0.04 0.04 0.02 0.00 0.00 0.00 0.00 0.00 0.00 0.00 0.00 0.00 0.00 0.00 0.00 0.00 0.00 0.00 0.01 0.01 0.01 0.01 0.02 0.01 0.01 0.01 0.01 0.01 0.01 0.01 0.01 0.01 0.01 0.01 0.01 0.01 0.02 0.03 0.02
0.04 0.03 0.02 0.02 0.03 0.04 0.04 0.02 0.01 0.00 0.00 0.00 0.00 0.01 0.00 0.00 0.00 0.00 0.00 0.00 0.00 0.00 0.00 0.01 0.01 0.00 0.00 0.01 0.01 0.01 0.01 0.01 0.02 0.01 0.01 0.01 0.01 0.02 0.02 0.01 0.02 0.02 0.02 0.02
0.05 0.05 0.04 0.03 0.03 0.03 0.03 0.02 0.01 0.00 0.00 0.00 0.01 0.01 0.01 0.00 0.00 0.00 0.00 0.00 0.00 0.00 0.00 0.00 0.01 0.00 0.00 0.00 0.01 0.01 0.01 0.01 0.02 0.02 0.01 0.01 0.01 0.02 0.04 0.05 0.04 0.03 0.02 0.02
0.05 0.04 0.04 0.03 0.03 0.02 0.02 0.02 0.01 0.00 0.00 0.01 0.00 0.00 0.01 0.01 0.00 0.00 0.00 0.00 0.00 0.00 0.00 0.00 0.00 0.00 0.00 0.00 0.00 0.00 0.00 0.01 0.01 0.01 0.01 0.01 0.01 0.02 0.02 0.03 0.03 0.03 0.02 0.02
0.03 0.03 0.04 0.03 0.02 0.02 0.02 0.02 0.01 0.00 0.00 0.00 0.00 0.00 0.00 0.01 0.00 0.01 0.01 0.01 0.00 0.00 0.00 0.00 0.00 0.00 0.00 0.00 0.00 0.00 0.00 0.01 0.01 0.01 0.01 0.01 0.01 0.01 0.01 0.02 0.02 0.01 0.02 0.02
0.02 0.03 0.03 0.02 0.01 0.01 0.01 0.02 0.02 0.01 0.00 0.00 0.00 0.00 0.00 0.01 0.01 0.02 0.01 0.01 0.00 0.00 0.00 0.00 0.00 0.00 0.01 0.01 0.00 0.01 0.01 0.01 0.01 0.01 0.01 0.00 0.00 0.01 0.01 0.01 0.02 0.01 0.01 0.02
0.02 0.02 0.02 0.02 0.01 0.01 0.01 0.02 0.03 0.02 0.01 0.00 0.00 0.00 0.00 0.01 0.02 0.02 0.01 0.01 0.00 0.00 0.00 0.00 0.00 0.00 0.01 0.01 0.01 0.01 0.01 0.01 0.01 0.02 0.02 0.00 0.00 0.01 0.01 0.01 0.01 0.02 0.01 0.02
0.02 0.02 0.02 0.02 0.02 0.01 0.02 0.03 0.04 0.03 0.02 0.01 0.01 0.01 0.01 0.01 0.01 0.01 0.00 0.00 0.01 0.01 0.00 0.00 0.00 0.01 0.01 0.01 0.01 0.01 0.01 0.01 0.01 0.02 0.02 0.01 0.00 0.01 0.01 0.01 0.01 0.02 0.02 0.03
0.01 0.02 0.02 0.03 0.02 0.02 0.02 0.03 0.05 0.04 0.02 0.01 0.01 0.01 0.01 0.01 0.00 0.00 0.01 0.00 0.00 0.00 0.00 0.00 0.00 0.01 0.01 0.02 0.02 0.02 0.01 0.02 0.02 0.01 0.02 0.01 0.01 0.01 0.01 0.01 0.01 0.02 0.03 0.04
0.01 0.02 0.02 0.02 0.02 0.02 0.02 0.03 0.05 0.04 0.02 0.02 0.02 0.01 0.01 0.01 0.00 0.00 0.00 0.00 0.01 0.00 0.00 0.00 0.01 0.01 0.01 0.02 0.02 0.02 0.01 0.02 0.02 0.02 0.02 0.02 0.02 0.01 0.01 0.01 0.02 0.03 0.02 0.03
0.01 0.02 0.02 0.02 0.01 0.01 0.02 0.02 0.03 0.04 0.03 0.02 0.02 0.02 0.02 0.01 0.01 0.01 0.00 0.00 0.00 0.01 0.01 0.01 0.01 0.01 0.01 0.01 0.01 0.01 0.01 0.02 0.02 0.02 0.02 0.02 0.01 0.01 0.02 0.02 0.02 0.03 0.02 0.02
0.02 0.03 0.03 0.01 0.00 0.00 0.01 0.02 0.01 0.03 0.05 0.05 0.04 0.04 0.02 0.02 0.01 0.01 0.01 0.01 0.01 0.00 0.01 0.01 0.01 0.01 0.01 0.01 0.01 0.01 0.02 0.02 0.02 0.03 0.03 0.03 0.02 0.02 0.02 0.02 0.02 0.02 0.02 0.02
0.04 0.04 0.03 0.01 0.00 0.00 0.01 0.02 0.02 0.03 0.04 0.05 0.04 0.05 0.03 0.03 0.02 0.01 0.01 0.01 0.01 0.01 0.01 0.01 0.01 0.02 0.02 0.02 0.01 0.02 0.03 0.03 0.03 0.03 0.03 0.03 0.03 0.02 0.02 0.02 0.02 0.02 0.03 0.03
0.04 0.03 0.02 0.01 0.01 0.01 0.01 0.01 0.02 0.02 0.02 0.02 0.02 0.04 0.04 0.03 0.02 0.02 0.01 0.01 0.02 0.02 0.02 0.01 0.01 0.03 0.04 0.03 0.02 0.02 0.03 0.03 0.03 0.02 0.02 0.03 0.02 0.02 0.02 0.02 0.02 0.02 0.02 0.03
0.03 0.03 0.03 0.02 0.02 0.02 0.02 0.01 0.01 0.01 0.02 0.02 0.02 0.03 0.03 0.03 0.04 0.03 0.02 0.02 0.02 0.02 0.01 0.02 0.02 0.03 0.04 0.04 0.04 0.04 0.03 0.03 0.03 0.03 0.03 0.02 0.02 0.02 0.02 0.02 0.02 0.03 0.03 0.03
0.02 0.02 0.03 0.04 0.03 0.03 0.03 0.03 0.02 0.02 0.02 0.02 0.02 0.02 0.02 0.02 0.04 0.03 0.02 0.02 0.02 0.02 0.01 0.02 0.02 0.02 0.03 0.04 0.05 0.05 0.05 0.05 0.04 0.03 0.03 0.03 0.03 0.03 0.02 0.02 0.03 0.03 0.03 0.02
0.02 0.02 0.03 0.04 0.04 0.03 0.03 0.03 0.03 0.02 0.02 0.03 0.02 0.02 0.02 0.02 0.03 0.03 0.02 0.02 0.02 0.02 0.01 0.01 0.01 0.01 0.02 0.03 0.05 0.05 0.05 0.05 0.05 0.04 0.03 0.03 0.03 0.03 0.03 0.03 0.02 0.02 0.02 0.02
0.02 0.02 0.01 0.02 0.02 0.02 0.02 0.03 0.03 0.03 0.03 0.04 0.04 0.03 0.03 0.02 0.03 0.03 0.02 0.03 0.02 0.02 0.01 0.01 0.01 0.02 0.02 0.03 0.03 0.05 0.05 0.04 0.03 0.03 0.03 0.03 0.03 0.03 0.03 0.03 0.02 0.02 0.01 0.01
MSLP
1014.77 1015.26 1015.70 1016.09 1016.46 1016.82 1017.19 1017.57 1017.94 1018.29 1018.61 1018.86 1019.04 1019.14 1019.16 1019.10 1018.97 1018.79 1018.58 1018.33 1018.08 1017.84 1017.63 1017.45 1017.32 1017.26 1017.27 1017.34 1017.47 1017.65 1017.84 1018.03 1018.20 1018.32 1018.38 1018.39 1018.35 1018.27 1018.20 1018.14 1018.12 1018.16 1018.25 1018.40
1014.85 1015.30 1015.66 1015.97 1016.23 1016.49 1016.76 1017.06 1017.39 1017.73 1018.07 1018.38 1018.65 1018.86 1018.99 1019.03 1018.98 1018.86 1018.67 1018.43 1018.17 1017.90 1017.64 1017.43 1017.28 1017.20 1017.19 1017.27 1017.41 1017.60 1017.82 1018.04 1018.25 1018.41 1018.52 1018.58 1018.60 1018.58 1018.55 1018.53 1018.54 1018.59 1018.67 1018.80
1014.95 1015.34 1015.63 1015.83 1015.99 1016.15 1016.32 1016.54 1016.81 1017.13 1017.48 1017.84 1018.18 1018.48 1018.70 1018.84 1018.88 1018.83 1018.68 1018.47 1018.20 1017.91 1017.63 1017.39 1017.20 1017.08 1017.05 1017.10 1017.23 1017.42 1017.65 1017.90 1018.14 1018.36 1018.54 1018.67 1018.77 1018.83 1018.88 1018.92 1018.97 1019.03 1019.11 1019.20
1015.04 1015.35 1015.55 1015.67 1015.73 1015.79 1015.88 1016.02 1016.23 1016.52 1016.87 1017.26 1017.65 1018.02 1018.33 1018.56 1018.68 1018.70 1018.62 1018.44 1018.19 1017.91 1017.61 1017.33 1017.10 1016.94 1016.86 1016.86 1016.95 1017.12 1017.34 1017.59 1017.87 1018.14 1018.39 1018.61 1018.80 1018.95 1019.08 1019.20 1019.29 1019.38 1019.46 1019.53
1015.03 1015.27 1015.39 1015.43 1015.41 1015.39 1015.41 1015.49 1015.66 1015.91 1016.26 1016.66 1017.09 1017.51 1017.90 1018.20 1018.42 1018.52 1018.50 1018.38 1018.17 1017.91 1017.60 1017.30 1017.03 1016.81 1016.67 1016.61 1016.64 1016.75 1016.94 1017.18 1017.47 1017.77 1018.08 1018.37 1018.65 1018.90 1019.11 1019.29 1019.44 1019.56 1019.64 1019.70
1014.84 1015.01 1015.07 1015.05 1014.99 1014.92 1014.89 1014.94 1015.08 1015.32 1015.65 1016.07 1016.53 1017.00 1017.45 1017.83 1018.13 1018.31 1018.38 1018.33 1018.18 1017.94 1017.65 1017.34 1017.03 1016.76 1016.55 1016.41 1016.37 1016.41 1016.54 1016.75 1017.02 1017.33 1017.67 1018.01 1018.35 1018.66 1018.94 1019.18 1019.37 1019.51 1019.61 1019.65
1014.40 1014.52 1014.55 1014.50 1014.42 1014.35 1014.31 1014.36 1014.50 1014.74 1015.09 1015.52 1016.02 1016.53 1017.04 1017.49 1017.87 1018.14 1018.30 1018.32 1018.24 1018.05 1017.79 1017.48 1017.15 1016.83 1016.55 1016.34 1016.22 1016.18 1016.24 1016.38 1016.61 1016.90 1017.24 1017.60 1017.96 1018.31 1018.62 1018.88 1019.10 1019.25 1019.35 1019.39
1013.72 1013.80 1013.81 1013.77 1013.71 1013.67 1013.68 1013.76 1013.93 1014.21 1014.59 1015.06 1015.60 1016.16 1016.72 1017.25 1017.70 1018.05 1018.29 1018.40 1018.39 1018.26 1018.04 1017.74 1017.41 1017.06 1016.74 1016.46 1016.26 1016.14 1016.12 1016.19 1016.36 1016.60 1016.90 1017.23 1017.57 1017.90 1018.20 1018.46 1018.67 1018.82 1018.91 1018.96
1012.83 1012.91 1012.93 1012.93 1012.92 1012.95 1013.03 1013.19 1013.43 1013.78 1014.22 1014.74 1015.32 1015.94 1016.56 1017.14 1017.66 1018.08 1018.40 1018.59 1018.64 1018.58 1018.40 1018.14 1017.82 1017.46 1017.11 1016.79 1016.52 1016.34 1016.24 1016.24 1016.33 1016.50 1016.73 1016.99 1017.28 1017.55 1017.80 1018.02 1018.19 1018.31 1018.38 1018.42
1011.86 1011.94 1012.00 1012.06 1012.14 1012.26 1012.44 1012.71 1013.06 1013.49 1014.01 1014.60 1015.24 1015.91 1016.57 1017.20 1017.77 1018.26 1018.63 1018.88 1019.01 1019.00 1018.88 1018.66 1018.36 1018.02 1017.66 1017.32 1017.02 1016.78 1016.63 1016.55 1016.57 1016.65 1016.79 1016.97 1017.16 1017.35 1017.52 1017.65 1017.75 1017.82 1017.86 1017.88
1010.94 1011.04 1011.15 1011.28 1011.46 1011.70 1012.01 1012.40 1012.87 1013.41 1014.01 1014.67 1015.37 1016.08 1016.78 1017.44 1018.05 1018.57 1018.98 1019.28 1019.45 1019.50 1019.43 1019.26 1019.00 1018.69 1018.35 1018.02 1017.71 1017.45 1017.25 1017.12 1017.06 1017.07 1017.11 1017.19 1017.28 1017.36 1017.42 1017.45 1017.46 1017.46 1017.44 1017.42
1010.20 1010.33 1010.50 1010.72 1011.01 1011.37 1011.81 1012.32 1012.90 1013.55 1014.24 1014.96 1015.71 1016.45 1017.17 1017.85 1018.46 1018.99 1019.43 1019.75 1019.95 1020.04 1020.02 1019.90 1019.69 1019.43 1019.13 1018.82 1018.52 1018.26 1018.05 1017.88 1017.77 1017.70 1017.67 1017.64 1017.62 1017.59 1017.54 1017.47 1017.38 1017.29 1017.20 1017.13
1009.70 1009.87 1010.11 1010.41 1010.81 1011.28 1011.84 1012.47 1013.16 1013.89 1014.65 1015.43 1016.20 1016.96 1017.68 1018.35 1018.95 1019.48 1019.91 1020.24 1020.47 1020.58 1020.60 1020.53 1020.38 1020.16 1019.92 1019.65 1019.39 1019.15 1018.93 1018.75 1018.60 1018.48 1018.37 1018.26 1018.15 1018.02 1017.87 1017.70 1017.52 1017.34 1017.18 1017.05
1009.45 1009.67 1009.97 1010.36 1010.85 1011.43 1012.09 1012.81 1013.58 1014.38 1015.19 1016.00 1016.79 1017.54 1018.25 1018.89 1019.47 1019.98 1020.40 1020.72 1020.96 1021.10 1021.15 1021.12 1021.02 1020.86 1020.67 1020.45 1020.23 1020.01 1019.81 1019.63 1019.46 1019.30 1019.14 1018.97 1018.78 1018.57 1018.34 1018.09 1017.84 1017.59 1017.36 1017.17
1009.37 1009.64 1010.02 1010.49 1011.07 1011.73 1012.47 1013.27 1014.09 1014.94 1015.77 1016.59 1017.37 1018.11 1018.79 1019.41 1019.96 1020.44 1020.84 1021.16 1021.40 1021.56 1021.64 1021.65 1021.60 1021.49 1021.35 1021.18 1020.99 1020.81 1020.62 1020.43 1020.25 1020.07 1019.88 1019.67 1019.43 1019.17 1018.89 1018.59 1018.29 1017.99 1017.71 1017.46
1009.37 1009.71 1010.15 1010.70 1011.35 1012.09 1012.89 1013.73 1014.59 1015.46 1016.30 1017.11 1017.88 1018.59 1019.25 1019.84 1020.37 1020.83 1021.23 1021.55 1021.80 1021.98 1022.08 1022.13 1022.11 1022.05 1021.95 1021.81 1021.65 1021.48 1021.30 1021.12 1020.93 1020.73 1020.51 1020.28 1020.03 1019.74 1019.44 1019.12 1018.79 1018.46 1018.15 1017.86
1009.34 1009.75 1010.27 1010.90 1011.61 1012.40 1013.25 1014.12 1015.00 1015.87 1016.71 1017.51 1018.27 1018.96 1019.60 1020.18 1020.70 1021.15 1021.55 1021.88 1022.15 1022.35 1022.48 1022.56 1022.57 1022.54 1022.46 1022.34 1022.19 1022.03 1021.85 1021.66 1021.45 1021.24 1021.02 1020.77 1020.51 1020.23 1019.92 1019.60 1019.27 1018.94 1018.62 1018.30
1009.22 1009.71 1010.31 1011.01 1011.78 1012.62 1013.50 1014.40 1015.29 1016.16 1016.99 1017.79 1018.53 1019.21 1019.84 1020.42 1020.94 1021.41 1021.82 1022.17 1022.47 1022.69 1022.86 1022.95 1022.99 1022.97 1022.90 1022.79 1022.63 1022.46 1022.26 1022.06 1021.84 1021.61 1021.38 1021.14 1020.88 1020.61 1020.32 1020.02 1019.70 1019.38 1019.05 1018.72
1009.01 1009.59 1010.26 1011.02 1011.86 1012.74 1013.65 1014.56 1015.46 1016.33 1017.17 1017.96 1018.69 1019.38 1020.02 1020.61 1021.15 1021.64 1022.08 1022.46 1022.78 1023.03 1023.22 1023.33 1023.38 1023.37 1023.29 1023.17 1023.00 1022.80 1022.59 1022.36 1022.12 1021.88 1021.64 1021.40 1021.15 1020.90 1020.63 1020.35 1020.06 1019.74 1019.42 1019.07
1008.77 1009.43 1010.17 1011.00 1011.89 1012.81 1013.75 1014.68 1015.59 1016.46 1017.30 1018.09 1018.84 1019.54 1020.20 1020.81 1021.38 1021.89 1022.36 1022.77 1023.11 1023.38 1023.58 1023.71 1023.76 1023.74 1023.65 1023.51 1023.32 1023.11 1022.87 1022.62 1022.36 1022.11 1021.87 1021.63 1021.39 1021.15 1020.91 1020.64 1020.36 1020.06 1019.72 1019.37
1008.59 1009.32 1010.14 1011.03 1011.96 1012.92 1013.88 1014.83 1015.75 1016.63 1017.48 1018.28 1019.04 1019.76 1020.43 1021.07 1021.65 1022.19 1022.67 1023.10 1023.45 1023.73 1023.94 1024.06 1024.11 1024.08 1023.99 1023.83 1023.63 1023.40 1023.15 1022.89 1022.63 1022.38 1022.13 1021.90 1021.67 1021.44 1021.20 1020.95 1020.66 1020.35 1020.00 1019.61
1008.58 1009.38 1010.25 1011.19 1012.16 1013.15 1014.13 1015.09 1016.02 1016.91 1017.77 1018.58 1019.35 1020.07 1020.76 1021.40 1022.00 1022.54 1023.03 1023.45 1023.80 1024.08 1024.28 1024.40 1024.44 1024.40 1024.30 1024.15 1023.95 1023.72 1023.47 1023.22 1022.96 1022.72 1022.49 1022.26 1022.04 1021.81 1021.57 1021.31 1021.00 1020.66 1020.27 1019.84
1008.81 1009.66 1010.58 1011.55 1012.54 1013.54 1014.54 1015.51 1016.44 1017.34 1018.20 1019.01 1019.78 1020.50 1021.19 1021.82 1022.40 1022.93 1023.41 1023.81 1024.15 1024.41 1024.59 1024.70 1024.73 1024.70 1024.61 1024.46 1024.28 1024.07 1023.85 1023.63 1023.40 1023.18 1022.96 1022.75 1022.53 1022.29 1022.04 1021.74 1021.41 1021.02 1020.57 1020.07
1009.29 1010.18 1011.12 1012.11 1013.11 1014.12 1015.11 1016.08 1017.01 1017.90 1018.75 1019.55 1020.31 1021.02 1021.68 1022.29 1022.85 1023.35 1023.78 1024.15 1024.46 1024.69 1024.86 1024.95 1024.99 1024.97 1024.89 1024.78 1024.64 1024.48 1024.30 1024.12 1023.93 1023.74 1023.55 1023.35 1023.12 1022.87 1022.59 1022.25 1021.86 1021.40 1020.88 1020.30
1009.98 1010.89 1011.85 1012.84 1013.84 1014.84 1015.82 1016.77 1017.68 1018.55 1019.39 1020.17 1020.90 1021.58 1022.20 1022.77 1023.28 1023.74 1024.13 1024.46 1024.72 1024.93 1025.07 1025.17 1025.21 1025.21 1025.17 1025.11 1025.02 1024.91 1024.80 1024.67 1024.53 1024.38 1024.20 1024.00 1023.77 1023.50 1023.17 1022.77 1022.31 1021.78 1021.18 1020.50
1010.82 1011.74 1012.69 1013.67 1014.64 1015.62 1016.57 1017.49 1018.38 1019.23 1020.03 1020.78 1021.47 1022.11 1022.69 1023.22 1023.68 1024.08 1024.43 1024.71 1024.94 1025.12 1025.25 1025.35 1025.41 1025.44 1025.45 1025.44 1025.41 1025.37 1025.31 1025.24 1025.14 1025.02 1024.86 1024.66 1024.40 1024.08 1023.70 1023.23 1022.69 1022.07 1021.38 1020.61
1011.70 1012.61 1013.55 1014.49 1015.44 1016.38 1017.29 1018.18 1019.03 1019.84 1020.61 1021.32 1021.98 1022.58 1023.12 1023.59 1024.01 1024.37 1024.67 1024.92 1025.12 1025.29 1025.42 1025.52 1025.61 1025.67 1025.73 1025.77 1025.80 1025.81 1025.81 1025.77 1025.71 1025.59 1025.43 1025.21 1024.91 1024.54 1024.09 1023.55 1022.92 1022.22 1021.43 1020.57
Thickness
5674 5678 5679 5677 5677 5679 5676 5678 5676 5688 5695 5707 5717 5718 5721 5723 5725 5724 5723 5722 5721 5718 5718 5717 5716 5715 5714 5711 5709 5707 5705 5703 5702 5702 5701 5699 5698 5696 5696 5695 5694 5693 5691 5690
5662 5670 5671 5671 5678 5679 5679 5681 5682 5687 5694 5713 5719 5721 5719 5718 5719 5717 5717 5717 5717 5716 5715 5714 5713 5712 5712 5709 5707 5706 5703 5701 5701 5700 5698 5696 5695 5694 5693 5692 5691 5689 5688 5687
5647 5660 5659 5659 5677 5680 5681 5685 5684 5681 5693 5706 5707 5710 5711 5713 5714 5714 5713 5713 5713 5713 5713 5712 5713 5712 5710 5708 5707 5704 5701 5700 5698 5697 5695 5694 5693 5691 5689 5688 5687 5685 5684 5683
5638 5643 5635 5667 5688 5687 5682 5684 5689 5691 5696 5700 5702 5706 5709 5710 5709 5710 5711 5710 5710 5710 5711 5712 5712 5712 5710 5708 5706 5702 5699 5697 5696 5695 5692 5691 5689 5687 5686 5685 5683 5682 5680 5679
5631 5631 5644 5665 5679 5680 5674 5675 5689 5688 5692 5696 5701 5700 5700 5707 5711 5710 5710 5709 5709 5710 5710 5710 5709 5709 5707 5705 5704 5700 5697 5696 5694 5693 5690 5688 5686 5684 5683 5682 5680 5679 5678 5676
5626 5622 5629 5656 5674 5682 5674 5663 5683 5684 5685 5689 5689 5677 5684 5701 5706 5706 5707 5706 5706 5707 5707 5706 5706 5706 5703 5701 5700 5698 5697 5695 5694 5692 5688 5686 5684 5682 5681 5679 5677 5676 5674 5673
5622 5623 5639 5659 5669 5669 5648 5655 5677 5681 5682 5683 5682 5683 5690 5697 5699 5700 5701 5702 5703 5702 5701 5701 5703 5702 5698 5697 5697 5698 5697 5694 5692 5690 5688 5685 5682 5680 5678 5676 5674 5672 5671 5670
5621 5618 5630 5655 5657 5650 5653 5668 5673 5675 5677 5679 5682 5686 5688 5689 5691 5693 5694 5696 5697 5695 5695 5697 5699 5697 5694 5694 5696 5696 5694 5691 5689 5687 5686 5684 5680 5678 5676 5673 5670 5668 5667 5665
5625 5628 5643 5650 5651 5656 5659 5660 5667 5669 5673 5674 5676 5678 5680 5682 5685 5687 5689 5690 5691 5690 5690 5691 5694 5693 5690 5691 5693 5692 5689 5686 5685 5683 5682 5681 5677 5674 5672 5670 5667 5665 5663 5661
5625 5632 5640 5643 5647 5650 5653 5654 5660 5664 5666 5669 5669 5672 5674 5677 5679 5681 5683 5684 5685 5685 5684 5685 5688 5688 5688 5690 5690 5687 5685 5682 5681 5679 5677 5676 5674 5672 5669 5667 5665 5663 5661 5659
5618 5626 5631 5636 5638 5641 5644 5648 5652 5656 5659 5661 5663 5665 5668 5670 5672 5675 5677 5678 5679 5679 5679 5680 5683 5683 5685 5686 5686 5683 5681 5679 5677 5675 5673 5671 5670 5668 5667 5666 5665 5662 5660 5658
5611 5622 5622 5625 5632 5635 5635 5639 5643 5648 5651 5655 5657 5658 5662 5664 5667 5669 5671 5673 5673 5674 5675 5676 5677 5678 5680 5682 5681 5679 5676 5675 5673 5670 5668 5667 5665 5662 5661 5661 5661 5660 5659 5657
5617 5621 5622 5624 5627 5629 5631 5634 5638 5641 5644 5648 5652 5654 5656 5658 5661 5663 5666 5667 5667 5668 5670 5672 5672 5673 5675 5676 5677 5675 5672 5671 5669 5667 5665 5663 5661 5658 5655 5653 5654 5653 5653 5652
5614 5614 5613 5616 5619 5623 5626 5629 5632 5635 5639 5642 5645 5648 5650 5651 5654 5656 5658 5661 5662 5663 5665 5666 5666 5667 5670 5671 5671 5670 5669 5668 5666 5664 5662 5661 5659 5657 5655 5651 5648 5646 5645 5645
5607 5608 5608 5611 5614 5616 5619 5620 5622 5627 5632 5635 5639 5641 5642 5643 5645 5649 5653 5656 5656 5657 5658 5660 5660 5662 5665 5666 5665 5665 5664 5663 5662 5661 5659 5658 5656 5654 5652 5649 5646 5643 5640 5638
5600 5602 5604 5604 5606 5609 5611 5612 5615 5619 5624 5628 5631 5633 5636 5638 5639 5643 5646 5648 5648 5649 5651 5654 5655 5658 5660 5660 5660 5660 5660 5660 5659 5658 5656 5654 5652 5650 5648 5646 5643 5640 5637 5634
5590 5592 5594 5597 5600 5602 5604 5607 5609 5612 5616 5620 5623 5626 5629 5630 5632 5635 5638 5641 5643 5644 5646 5648 5649 5652 5654 5655 5655 5655 5655 5655 5654 5653 5652 5651 5649 5647 5645 5643 5640 5637 5634 5631
5588 5589 5590 5592 5594 5595 5598 5600 5603 5605 5608 5613 5616 5619 5620 5622 5623 5627 5631 5634 5636 5638 5640 5643 5645 5647 5648 5649 5649 5650 5651 5650 5650 5649 5648 5647 5645 5644 5642 5639 5637 5633 5630 5626
5582 5583 5585 5586 5587 5588 5589 5592 5595 5598 5602 5605 5607 5609 5612 5615 5617 5620 5624 5625 5627 5629 5633 5637 5639 5640 5642 5643 5644 5645 5646 5645 5644 5644 5643 5642 5640 5639 5637 5635 5632 5629 5626 5621
5575 5576 5577 5578 5580 5581 5582 5584 5587 5590 5594 5597 5599 5601 5603 5607 5610 5613 5615 5617 5620 5623 5627 5630 5632 5634 5636 5637 5637 5639 5640 5640 5639 5638 5638 5636 5635 5633 5632 5630 5627 5624 5620 5617
5566 5567 5569 5570 5571 5573 5575 5577 5579 5581 5585 5587 5590 5592 5595 5598 5602 5604 5606 5608 5612 5616 5620 5622 5624 5626 5628 5629 5630 5632 5633 5633 5633 5632 5631 5630 5629 5627 5625 5623 5620 5618 5615 5612
5557 5558 5559 5561 5563 5565 5568 5570 5571 5574 5576 5578 5581 5583 5586 5589 5593 5596 5599 5601 5604 5607 5611 5614 5616 5618 5620 5621 5622 5624 5626 5626 5625 5625 5624 5623 5621 5620 5618 5616 5614 5612 5609 5606
5549 5550 5551 5553 5555 5557 5559 5561 5563 5565 5567 5570 5572 5574 5576 5580 5583 5586 5589 5593 5597 5600 5603 5606 5609 5610 5612 5613 5614 5616 5617 5617 5617 5617 5616 5615 5614 5613 5611 5609 5607 5605 5602 5599
5540 5542 5544 5546 5547 5549 5550 5552 5554 5556 5558 5561 5564 5566 5569 5571 5575 5578 5581 5585 5589 5591 5594 5597 5600 5602 5603 5604 5606 5607 5607 5608 5608 5608 5607 5607 5606 5605 5603 5601 5599 5597 5594 5592
5533 5535 5537 5538 5539 5540 5542 5545 5546 5548 5550 5553 5556 5559 5561 5563 5565 5569 5572 5576 5580 5582 5585 5589 5591 5593 5594 5595 5597 5598 5599 5599 5600 5600 5599 5598 5597 5596 5595 5593 5591 5589 5586 5583
5526 5527 5528 5529 5530 5532 5534 5536 5538 5539 5542 5544 5547 5550 5553 5555 5558 5561 5564 5567 5571 5573 5577 5580 5582 5584 5585 5587 5588 5589 5590 5590 5590 5590 5590 5590 5588 5587 5585 5583 5582 5580 5578 5575
5518 5518 5519 5521 5523 5525 5526 5528 5529 5531 5533 5535 5537 5540 5543 5546 5549 5552 5555 5558 5561 5564 5568 5571 5573 5575 5577 5578 5579 5580 5581 5581 5581 5581 5580 5580 5579 5578 5576 5574 5572 5571 5569 5566